FW8496 Weather Reports


time (UTC)temp
C
wind
direction
speed
KPH
gust
KPH
rain 1hr
cm
rain 24hr
cm
rain mn
cm
humidity
%
barometer
mb
20260504215042 21 298 17.7 29.0 0.00 0.00 0.00 16 1013.0
20260504214614 21 292 14.5 27.4 0.00 0.00 0.00 15 1013.0
20260504214043 21 298 11.3 24.1 0.00 0.00 0.00 15 1013.0
20260504213543 21 320 11.3 37.0 0.00 0.00 0.00 14 1012.8
20260504213055 21 231 14.5 37.0 0.00 0.00 0.00 15 1013.0
20260504212543 21 299 17.7 33.8 0.00 0.00 0.00 14 1013.2
20260504212044 21 294 14.5 33.8 0.00 0.00 0.00 15 1013.1
20260504211552 20 302 16.1 29.0 0.00 0.00 0.00 14 1013.3
20260504211046 20 270 16.1 27.4 0.00 0.00 0.00 14 1013.3
20260504210542 20 319 14.5 30.6 0.00 0.00 0.00 14 1013.4
20260504210055 20 256 16.1 38.6 0.00 0.00 0.00 14 1013.6
20260504205544 21 259 22.5 38.6 0.00 0.00 0.00 13 1013.7
20260504205043 21 250 12.9 29.0 0.00 0.00 0.00 15 1013.6
20260504204601 21 298 16.1 32.2 0.00 0.00 0.00 15 1013.9
20260504204053 20 268 17.7 37.0 0.00 0.00 0.00 15 1013.9
20260504203546 20 219 17.7 37.0 0.00 0.00 0.00 17 1014.0
20260504203046 20 205 14.5 29.0 0.00 0.00 0.00 17 1013.9
20260504202543 20 294 17.7 35.4 0.00 0.00 0.00 17 1014.1
20260504202043 20 275 12.9 35.4 0.00 0.00 0.00 18 1014.1
20260504201600 20 234 22.5 35.4 0.00 0.00 0.00 17 1014.2
20260504201047 21 217 12.9 27.4 0.00 0.00 0.00 18 1014.2
20260504200543 21 286 9.7 35.4 0.00 0.00 0.00 19 1014.1
20260504200051 21 285 17.7 35.4 0.00 0.00 0.00 17 1014.2
20260504195542 21 244 14.5 30.6 0.00 0.00 0.00 18 1014.2
20260504195042 21 265 16.1 29.0 0.00 0.00 0.00 19 1014.1
20260504194600 21 236 12.9 35.4 0.00 0.00 0.00 19 1014.3
20260504194043 20 245 19.3 35.4 0.00 0.00 0.00 20 1014.3
20260504193543 21 246 17.7 30.6 0.00 0.00 0.00 20 1014.2
20260504193050 21 220 12.9 29.0 0.00 0.00 0.00 20 1014.3
20260504192543 20 245 14.5 37.0 0.00 0.00 0.00 19 1014.6
20260504192042 21 202 19.3 37.0 0.00 0.00 0.00 20 1014.3
20260504191559 21 266 12.9 32.2 0.00 0.00 0.00 20 1014.3
20260504191043 21 229 11.3 32.2 0.00 0.00 0.00 21 1014.4
20260504190544 21 292 14.5 29.0 0.00 0.00 0.00 21 1014.5
20260504190110 20 254 16.1 30.6 0.00 0.00 0.00 21 1014.5
20260504185545 20 176 16.1 30.6 0.00 0.00 0.00 22 1014.6
20260504185042 20 207 14.5 30.6 0.00 0.00 0.00 22 1014.9
20260504184608 20 253 16.1 30.6 0.00 0.00 0.00 21 1015.0
20260504184043 20 195 12.9 25.7 0.00 0.00 0.00 22 1015.0
20260504183542 20 242 14.5 35.4 0.00 0.00 0.00 21 1015.0
20260504183046 20 211 16.1 35.4 0.00 0.00 0.00 21 1015.2
20260504182543 20 216 11.3 30.6 0.00 0.00 0.00 22 1015.1
20260504182042 20 292 17.7 30.6 0.00 0.00 0.00 22 1015.2
20260504181551 21 186 9.7 22.5 0.00 0.00 0.00 22 1015.1
20260504181043 21 258 9.7 22.5 0.00 0.00 0.00 22 1015.3
20260504180543 20 273 12.9 25.7 0.00 0.00 0.00 21 1015.3
20260504180053 20 238 11.3 25.7 0.00 0.00 0.00 22 1015.3
20260504175544 20 186 9.7 22.5 0.00 0.00 0.00 23 1015.3
20260504175043 20 157 11.3 22.5 0.00 0.00 0.00 24 1015.6
20260504174551 20 260 9.7 24.1 0.00 0.00 0.00 24 1015.7
20260504174043 19 175 9.7 29.0 0.00 0.00 0.00 24 1015.7
20260504173542 20 248 12.9 29.0 0.00 0.00 0.00 24 1015.6
20260504173051 20 242 11.3 27.4 0.00 0.00 0.00 23 1015.6
20260504172542 20 243 8.0 17.7 0.00 0.00 0.00 24 1015.6
20260504172042 20 0 3.2 19.3 0.00 0.00 0.00 31 1015.7
20260504171557 20 226 4.8 19.3 0.00 0.00 0.00 29 1015.8
20260504171042 20 192 6.4 16.1 0.00 0.00 0.00 29 1015.7
20260504170544 19 170 6.4 16.1 0.00 0.00 0.00 31 1015.7
20260504151043 13 193 4.8 12.9 0.00 0.00 0.00 58 1016.9
20260504150542 12 244 4.8 16.1 0.00 0.00 0.00 60 1016.9
20260504141042 10 212 4.8 11.3 0.00 0.00 0.00 68 1016.7
20260504140542 10 196 4.8 9.7 0.00 0.00 0.00 69 1016.8
20260504140106 10 181 3.2 9.7 0.00 0.00 0.00 69 1016.9
20260504130543 8 89 3.2 6.4 0.00 0.00 0.00 71 1016.4
20260504120109 8 89 3.2 4.8 0.00 0.00 0.00 69 1015.6
20260504110547 8 89 1.6 4.8 0.00 0.00 0.00 66 1015.4
20260504100547 10 80 3.2 8.0 0.00 0.00 0.00 64 1015.7
20260504081549 11 235 1.6 14.5 0.00 0.00 0.00 57 1016.4
20260504081042 11 234 6.4 14.5 0.00 0.00 0.00 57 1016.3
20260504080542 11 172 1.6 11.3 0.00 0.00 0.00 57 1016.2
20260504050542 10 165 1.6 6.4 0.00 0.00 0.00 53 1017.1
20260504045542 11 165 3.2 6.4 0.00 0.00 0.00 51 1017.2
20260504045042 11 165 3.2 6.4 0.00 0.00 0.00 49 1017.1
20260504044550 11 165 3.2 8.0 0.00 0.00 0.00 48 1017.1
20260504044043 11 165 3.2 8.0 0.00 0.00 0.00 47 1017.1
20260504043543 11 165 4.8 8.0 0.00 0.00 0.00 46 1017.1
20260504043049 11 165 3.2 6.4 0.00 0.00 0.00 45 1017.1
20260504042542 12 165 3.2 6.4 0.00 0.00 0.00 45 1016.9
20260504042042 12 165 3.2 11.3 0.00 0.00 0.00 44 1016.9
20260504041547 12 188 3.2 11.3 0.00 0.00 0.00 44 1016.8
20260504041042 12 199 6.4 11.3 0.00 0.00 0.00 43 1016.8
20260504040544 12 198 4.8 14.5 0.00 0.00 0.00 42 1016.7
20260504040052 12 211 6.4 14.5 0.00 0.00 0.00 42 1016.7
20260504035542 12 244 6.4 14.5 0.00 0.00 0.00 40 1016.6
20260504035042 12 196 6.4 12.9 0.00 0.00 0.00 38 1016.7
20260504034549 12 198 4.8 11.3 0.00 0.00 0.00 37 1016.6
20260504034045 13 178 4.8 14.5 0.00 0.00 0.00 37 1016.6
20260504033543 13 186 6.4 14.5 0.00 0.00 0.00 37 1016.7
20260504033053 13 189 6.4 12.9 0.00 0.00 0.00 36 1016.6
20260504032543 13 182 4.8 12.9 0.00 0.00 0.00 36 1016.6
20260504032043 13 197 6.4 12.9 0.00 0.00 0.00 35 1016.5
20260504031558 13 202 4.8 12.9 0.00 0.00 0.00 35 1016.5
20260504031045 13 211 6.4 14.5 0.00 0.00 0.00 34 1016.4
20260504030543 13 203 4.8 17.7 0.00 0.00 0.00 33 1016.3
20260504030050 13 238 6.4 17.7 0.00 0.00 0.00 33 1016.3
20260504025542 14 161 6.4 12.9 0.00 0.00 0.00 32 1016.4
20260504025045 14 241 6.4 12.9 0.00 0.00 0.00 31 1016.2
20260504024558 14 188 4.8 12.9 0.00 0.00 0.00 30 1016.2
20260504024042 15 206 6.4 12.9 0.00 0.00 0.00 30 1016.1
20260504023545 15 174 4.8 14.5 0.00 0.00 0.00 29 1016.1
20260504023045 15 177 8.0 16.1 0.00 0.00 0.00 29 1016.0
20260504022542 15 168 8.0 16.1 0.00 0.00 0.00 29 1015.9
20260504022043 15 186 8.0 16.1 0.00 0.00 0.00 28 1015.8
20260504021553 15 194 9.7 16.1 0.00 0.00 0.00 28 1015.7
20260504021042 16 200 6.4 14.5 0.00 0.00 0.00 28 1015.6
20260504020542 16 202 8.0 14.5 0.00 0.00 0.00 27 1015.7
20260504020050 16 188 6.4 12.9 0.00 0.00 0.00 26 1015.5
20260504015543 16 199 6.4 16.1 0.00 0.00 0.00 26 1015.4
20260504015043 17 200 9.7 16.1 0.00 0.00 0.00 26 1015.4
20260504014549 17 195 8.0 16.1 0.00 0.00 0.00 26 1015.4
20260504014042 17 205 8.0 16.1 0.00 0.00 0.00 26 1015.3
20260504013542 17 170 8.0 19.3 0.00 0.00 0.00 25 1015.3
20260504013058 17 240 9.7 19.3 0.00 0.00 0.00 25 1015.3
20260504012544 18 191 11.3 24.1 0.00 0.00 0.00 25 1015.3
20260504012044 18 200 9.7 24.1 0.00 0.00 0.00 25 1015.3
20260504011552 18 202 12.9 24.1 0.00 0.00 0.00 24 1015.4
20260504011042 18 230 9.7 24.1 0.00 0.00 0.00 24 1015.5
20260504010541 18 202 11.3 27.4 0.00 0.00 0.00 24 1015.5
20260504010055 19 249 12.9 27.4 0.00 0.00 0.00 24 1015.7
20260504005540 19 196 12.9 22.5 0.00 0.00 0.00 23 1015.7
20260504005043 20 200 8.0 22.5 0.00 0.00 0.00 23 1015.7
20260504004603 20 234 11.3 22.5 0.00 0.00 0.00 22 1015.7
20260504004043 20 220 8.0 16.1 0.00 0.00 0.00 22 1015.7
20260504003544 20 188 8.0 16.1 0.00 0.00 0.00 22 1015.8
20260504003054 20 198 6.4 16.1 0.00 0.00 0.00 22 1015.8
20260504002542 20 225 6.4 14.5 0.00 0.00 0.00 22 1015.9
20260504002045 20 172 6.4 22.5 0.00 0.00 0.00 22 1015.8
20260504001557 20 176 9.7 25.7 0.00 0.00 0.00 22 1016.0
20260504001043 20 196 9.7 30.6 0.00 0.00 0.00 22 1016.0
20260504000543 21 170 11.3 30.6 0.00 0.00 0.00 21 1016.0
20260504000053 21 140 11.3 27.4 0.00 0.00 0.00 21 1016.1
20260503235543 21 205 9.7 27.4 0.00 0.00 0.00 21 1016.1
20260503235046 21 210 9.7 27.4 0.00 0.00 0.00 21 1016.2
20260503234550 21 182 9.7 25.7 0.00 0.00 0.00 21 1016.0
20260503234043 21 224 9.7 27.4 0.00 0.00 0.00 21 1016.2
20260503233542 21 267 12.9 27.4 0.00 0.00 0.00 20 1016.2
20260503233050 22 226 9.7 22.5 0.00 0.00 0.00 20 1016.3
20260503232542 22 191 8.0 22.5 0.00 0.00 0.00 20 1016.3
20260503232042 22 232 8.0 22.5 0.00 0.00 0.00 20 1016.4
20260503231555 21 0 4.8 20.9 0.00 0.00 0.00 20 1016.4
20260503231043 21 192 12.9 27.4 0.00 0.00 0.00 21 1016.5
20260503230543 21 275 11.3 27.4 0.00 0.00 0.00 21 1016.5
20260503230051 22 243 8.0 24.1 0.00 0.00 0.00 21 1016.6
20260503225542 21 215 9.7 20.9 0.00 0.00 0.00 21 1016.7
20260503225042 21 223 8.0 20.9 0.00 0.00 0.00 22 1016.7
20260503224549 21 263 8.0 27.4 0.00 0.00 0.00 23 1016.8
20260503224043 20 261 11.3 27.4 0.00 0.00 0.00 23 1016.8
20260503223542 20 300 14.5 27.4 0.00 0.00 0.00 23 1016.9
20260503223044 20 250 8.0 24.1 0.00 0.00 0.00 22 1017.0
20260503222541 21 246 12.9 24.1 0.00 0.00 0.00 21 1017.0
20260503222047 22 254 12.9 24.1 0.00 0.00 0.00 20 1017.1
20260503221556 22 215 12.9 24.1 0.00 0.00 0.00 20 1017.2
20260503221045 22 252 11.3 24.1 0.00 0.00 0.00 20 1017.2
20260503220543 22 180 11.3 22.5 0.00 0.00 0.00 19 1017.4
20260503220051 22 285 4.8 25.7 0.00 0.00 0.00 19 1017.3
20260503215542 22 244 11.3 25.7 0.00 0.00 0.00 19 1017.5